Regional Weather Roundup
Issued by NWS Newport/Morehead, NC

Current Version | Previous Version | Text Only | Print | Product List | Glossary Off
Versions: 1 2 3 4 5 6 7 8 9 10 11 12 13 14 15 16 17 18 19 20 21 22 23 24 25 26 27 28 29 30 31 32 33 34 35 36 37 38 39 40 41 42 43 44 45 46 47 48 49 50
000 ASUS42 KMHX 022325 RWRMHX WEATHER ROUNDUP FOR EASTERN NORTH CAROLINA NATIONAL WEATHER SERVICE NEWPORT/MOREHEAD CITY NC 700 PM EDT WED SEP 02 2015 NOTE: "FAIR" INDICATES FEW OR NO CLOUDS BELOW 12,000 FEET WITH NO SIGNIFICANT WEATHER AND/OR OBSTRUCTIONS TO VISIBILITY NCZ015>017-031-032-045>047-102-103-030000- NORTH COAST CITY SKY/WX TMP DP RH WIND PRES REMARKS EDENTON PTCLDY 85 72 65 SE3 29.94S ELIZABETH CITY MOCLDY 79 71 76 N3 29.96S KITTY HAWK PTCLDY 82 70 67 CALM 29.94S MANTEO PTCLDY 81 74 78 S7 29.95F $$ NCZ045>047-081-094-103-104-030000- CENTRAL COAST CITY SKY/WX TMP DP RH WIND PRES REMARKS FRISCO PTCLDY 81 70 69 CALM 29.95F SWANQUARTER N/A 82 N/A N/A SE3 29.91S $$ NCZ095-097-098-100-101-030000- SOUTHERN COAST CITY SKY/WX TMP DP RH WIND PRES REMARKS BEAUFORT CLEAR 81 74 79 S6 29.95F CEDAR ISLAND N/A 84 N/A N/A S3 29.97F JACKSONVILLE CLEAR 83 74 74 S6 29.94F PINEY ISLAND PTCLDY N/A N/A N/A S5 29.95F WILMINGTON PTCLDY 85 74 69 S7 29.94F $$ NCZ011>013-027>030-043-044-078>080-089-090>093-098-030000- COASTAL PLAIN CITY SKY/WX TMP DP RH WIND PRES REMARKS AHOSKIE PTCLDY 82 72 72 CALM 29.93F CLINTON CLEAR 85 74 70 CALM 29.95S ELIZABETHTOWN PTCLDY 86 73 64 CALM 29.94F GOLDSBORO CLEAR 89 71 56 S3 29.93F GREENVILLE PTCLDY 82 77 83 CALM 29.96S HAVELOCK PTCLDY 83 73 72 S5 29.96S KENANSVILLE N/A 81 76 84 CALM 29.95S KINSTON CLEAR 86 75 70 CALM 29.95F NEW BERN CLEAR 86 72 62 S3 29.95F RICHLANDS CLEAR 84 70 61 S6 29.95S ROCKY MOUNT PTCLDY 90 69 50 SW7 29.94S WASHINGTON CLEAR 83 72 67 SE5 29.94S WHITEVILLE PTCLDY 84 72 67 S6 29.95S $$ AMZ130-135-150-152-154-156-158-170-250-252-270-ANZ085-086-088-633-658-670-030000- MARINE OBSERVATIONS STATION/POSITION TIME TEMP WIND PRES WAVE SWELL AIR SEA DIR/SP/G HT/PER HT/PER (UTC) (F) (DEG/KT/KT) (MB) (FT/S) (FT/S) CHESAPEAKE LIGHT 2300 78 250/ 17/ 18 1014.8 64 E VA BEACH 2250 80 81 210/ 8/ 10 1013.5 2/14 2/14 DUCK 2300 82 79 180/ 3/ 4 1013.3 2 E DUCK 2211 81 N/A 1/ 9 OREGON INLET 2300 81 82 190/ 6/ 7 1014.0 13E OREGON INLT 2300 80 N/A 1/13 2/13 HATTERAS CG 2300 82 83 220/ 2/ 4 1013.9 DIAMOND BUOY 2250 82 86 310/ 2/ 4 1014.3 2/ 6 2/ 6 CAPE LOOKOUT 2300 82 180/ 4/ 5 1014.1 BEAUFORT LAB 2300 83 82 190/ 5/ 7 1013.6 30 SE NEW RVR IN 2208 83 84 230/ 6/ 8 1015.0 30 SE NEW RVR IN 2225 83 N/A 2/ 6 27 SE WRIGHTSVLE 2300 80 83 250/ 8/ 10 N/A 5 SE WRIGHTSVLE 2208 83 83 210/ 10/ 14 1014.6 225 S CAPE HAT 2250 83 84 280/ 8/ 10 1014.9 2/13 2/13 41 SE CHARLESTON 2250 82 84 240/ 6/ 8 1015.0 2/ 8 2/ 8 $$

USA.gov is the U.S. government's official web portal to all federal, state and local government web resources and services.